Beaufort, NC

2:25 AM EST on December 10, 2019 (GMT -0500)
Smith

Weather History for KMRH - June, 2019

Change the Weather History Date:

Friday, June 14, 2019

  Actual Average Record
Temperature  
Mean Temperature 75 °F -  
Max Temperature 81 °F 83 °F 93 °F (2015)
Min Temperature 69 °F 65 °F 52 °F (1980)
Cooling Degree Days 10    
Growing Degree Days 25 (Base 50)    
Moisture  
Dew Point 52 °F    
Average Humidity 48    
Maximum Humidity 73    
Minimum Humidity 26    
Precipitation  
Precipitation 0.00 in - - ()
Sea Level Pressure  
Sea Level Pressure 30.10 in    
Wind  
Wind Speed 11 mph (NW)    
Max Wind Speed 16 mph    
Max Gust Speed 25 mph    
Visibility 10 miles    
Events      
Averages and records for this station are not official NWS values.
T = Trace of Precipitation, MM = Missing Value Source: NWS Daily Summary

Daily Weather History Graph

Daily Weather History Graph

Search for Another Location

Airport or City:

Astronomy

Jun. 14, 2019 Rise Set
Actual Time 5:52 AM EDT 8:21 PM EDT
Civil Twilight 5:23 AM EDT 8:50 PM EDT
Nautical Twilight 4:46 AM EDT 9:27 PM EDT
Astronomical Twilight 4:06 AM EDT 10:07 PM EDT
Moon 5:46 PM EDT (6/14) 4:01 AM EDT (6/14)
Length of Visible Light 15h 27m
Length of Day
14h 28m
Waxing Gibbous, 92% of the Moon is Illuminated
Jun 14
Waxing Gibbous
Jun 17
Full
Jun 25
Last Quarter
Jul 2
New
Jul 9
First Quarter

Hourly Weather History & Observations

Time (EDT) Temp. Dew Point Humidity Pressure Visibility Wind Dir Wind Speed Gust Speed Precip Events Conditions
12:58 AM 77.0 °F 66.9 °F 71% 29.97 in 10.0 mi WSW 11.5 mph - N/A   Clear
1:58 AM 77.0 °F 66.0 °F 69% 29.98 in 10.0 mi WSW 15.0 mph 25.3 mph N/A   Clear
2:58 AM 75.9 °F 64.0 °F 67% 29.99 in 10.0 mi West 16.1 mph - N/A   Partly Cloudy
3:58 AM 72.0 °F 63.0 °F 73% 29.99 in 10.0 mi WNW 12.7 mph - N/A   Clear
4:58 AM 71.1 °F 60.1 °F 68% 30.01 in 10.0 mi NW 13.8 mph - N/A   Clear
5:58 AM 70.0 °F 59.0 °F 68% 30.06 in 10.0 mi NNW 12.7 mph - N/A   Clear
6:58 AM 69.1 °F 51.1 °F 53% 30.09 in 10.0 mi North 11.5 mph - N/A   Clear
7:58 AM 70.0 °F 48.9 °F 47% 30.12 in 10.0 mi North 11.5 mph - N/A   Clear
8:58 AM 70.0 °F 48.0 °F 46% 30.13 in 10.0 mi North 12.7 mph - N/A   Clear
10:58 AM 73.9 °F 48.9 °F 41% 30.16 in 10.0 mi NNW 12.7 mph - N/A   Clear
11:58 AM 73.9 °F 48.0 °F 40% 30.15 in 10.0 mi NNW 12.7 mph - N/A   Clear
12:58 PM 75.9 °F 46.9 °F 36% 30.16 in 10.0 mi NNW 11.5 mph - N/A   Clear
1:58 PM 77.0 °F 46.9 °F 34% 30.15 in 10.0 mi NNW 8.1 mph - N/A   Clear
2:58 PM 80.1 °F 45.0 °F 29% 30.15 in 10.0 mi NW 9.2 mph - N/A   Clear
3:58 PM 81.0 °F 44.1 °F 27% 30.15 in 10.0 mi NNW 11.5 mph - N/A   Clear
4:58 PM 81.0 °F 43.0 °F 26% 30.14 in 10.0 mi NW 5.8 mph - N/A   Clear
5:58 PM 80.1 °F 44.1 °F 28% 30.14 in 10.0 mi NW 4.6 mph - N/A   Clear
6:58 PM 78.1 °F 45.0 °F 31% 30.14 in 10.0 mi NNE 8.1 mph - N/A   Clear
7:58 PM 73.9 °F 46.9 °F 38% 30.16 in 10.0 mi North 4.6 mph - N/A   Clear
8:58 PM 71.1 °F 54.0 °F 55% 30.17 in 10.0 mi SE 3.5 mph - N/A   Clear
9:58 PM 69.1 °F 54.0 °F 58% 30.19 in 10.0 mi SSE 3.5 mph - N/A   Clear